TimeCST,TemperatureF,Dew PointF,Humidity,Sea Level PressureIn,VisibilityMPH,Wind Direction,Wind SpeedMPH,Gust SpeedMPH,PrecipitationIn,Events,Conditions,WindDirDegrees,DateUTC
12:13 AM,14.0,12.2,93,29.76,10.0,SSE,8.1,-,N/A,,Clear,160,2013-01-07 06:13:00
12:33 AM,14.0,12.2,93,29.75,10.0,SE,5.8,-,N/A,,Clear,130,2013-01-07 06:33:00
12:52 AM,14.0,12.2,93,29.75,10.0,SSE,5.8,-,N/A,,Clear,150,2013-01-07 06:52:00
1:13 AM,15.8,14.0,93,29.75,10.0,SSE,5.8,-,N/A,,Clear,160,2013-01-07 07:13:00
1:33 AM,12.2,10.4,92,29.74,10.0,SSE,6.9,-,N/A,,Clear,160,2013-01-07 07:33:00
1:52 AM,12.2,12.2,100,29.74,10.0,South,4.6,-,N/A,,Clear,170,2013-01-07 07:52:00
2:13 AM,14.0,14.0,100,29.75,10.0,South,5.8,-,N/A,,Clear,190,2013-01-07 08:13:00
2:33 AM,15.8,14.0,93,29.74,10.0,SSW,5.8,-,N/A,,Clear,200,2013-01-07 08:33:00
2:52 AM,19.4,17.6,93,29.74,10.0,SSW,9.2,-,N/A,,Clear,210,2013-01-07 08:52:00
3:13 AM,21.2,17.6,86,29.73,10.0,SSW,8.1,-,N/A,,Clear,210,2013-01-07 09:13:00
3:33 AM,21.2,17.6,86,29.73,10.0,SSW,9.2,-,N/A,,Clear,210,2013-01-07 09:33:00
3:52 AM,21.2,19.4,93,29.75,10.0,WSW,6.9,-,N/A,,Clear,240,2013-01-07 09:52:00
4:13 AM,21.2,19.4,93,29.74,10.0,SW,8.1,-,N/A,,Clear,220,2013-01-07 10:13:00
4:33 AM,23.0,19.4,86,29.73,10.0,SW,8.1,-,N/A,,Clear,220,2013-01-07 10:33:00
4:52 AM,23.0,19.4,86,29.73,10.0,SSW,8.1,-,N/A,,Clear,200,2013-01-07 10:52:00
5:13 AM,23.0,19.4,86,29.73,10.0,SSW,6.9,-,N/A,,Clear,200,2013-01-07 11:13:00
5:33 AM,23.0,21.2,93,29.73,10.0,SW,8.1,-,N/A,,Clear,220,2013-01-07 11:33:00
5:52 AM,24.8,21.2,86,29.73,10.0,SW,9.2,-,N/A,,Clear,230,2013-01-07 11:52:00
6:33 AM,26.6,21.2,80,29.74,10.0,SW,6.9,-,N/A,,Clear,220,2013-01-07 12:33:00
6:52 AM,26.6,21.2,80,29.74,10.0,SW,5.8,-,N/A,,Clear,220,2013-01-07 12:52:00
7:13 AM,26.6,21.2,80,29.74,10.0,WSW,5.8,-,N/A,,Clear,250,2013-01-07 13:13:00
7:33 AM,26.6,21.2,80,29.75,10.0,WSW,6.9,-,N/A,,Clear,250,2013-01-07 13:33:00
7:52 AM,28.4,23.0,80,29.75,10.0,West,10.4,17.3,N/A,,Clear,270,2013-01-07 13:52:00
8:13 AM,30.2,23.0,75,29.76,10.0,West,11.5,17.3,N/A,,Clear,260,2013-01-07 14:13:00
8:33 AM,30.2,23.0,75,29.76,10.0,WSW,11.5,18.4,N/A,,Clear,250,2013-01-07 14:33:00
9:13 AM,30.2,23.0,75,29.78,10.0,West,10.4,-,N/A,,Clear,260,2013-01-07 15:13:00
9:33 AM,30.2,23.0,75,29.78,10.0,WSW,11.5,17.3,N/A,,Clear,250,2013-01-07 15:33:00
9:52 AM,32.0,24.8,75,29.78,10.0,West,10.4,18.4,N/A,,Clear,260,2013-01-07 15:52:00
10:13 AM,32.0,24.8,75,29.79,10.0,West,9.2,-,N/A,,Clear,260,2013-01-07 16:13:00
10:33 AM,32.0,24.8,75,29.79,10.0,West,11.5,17.3,N/A,,Clear,260,2013-01-07 16:33:00
10:52 AM,33.8,24.8,70,29.79,10.0,West,11.5,18.4,N/A,,Clear,260,2013-01-07 16:52:00
11:13 AM,33.8,26.6,75,29.79,10.0,West,18.4,24.2,N/A,,Clear,270,2013-01-07 17:13:00
11:33 AM,35.6,24.8,65,29.79,10.0,West,16.1,23.0,N/A,,Clear,260,2013-01-07 17:33:00
11:52 AM,35.6,26.6,70,29.78,10.0,West,19.6,25.3,N/A,,Clear,270,2013-01-07 17:52:00
12:13 PM,35.6,26.6,70,29.78,10.0,West,16.1,20.7,N/A,,Clear,270,2013-01-07 18:13:00
12:33 PM,33.8,26.6,75,29.78,10.0,West,18.4,24.2,N/A,,Clear,280,2013-01-07 18:33:00
1:13 PM,33.8,26.6,75,29.78,10.0,West,13.8,21.9,N/A,,Clear,270,2013-01-07 19:13:00
1:33 PM,35.6,24.8,65,29.78,10.0,West,13.8,19.6,N/A,,Clear,270,2013-01-07 19:33:00
1:52 PM,33.8,24.8,70,29.78,10.0,West,13.8,19.6,N/A,,Clear,280,2013-01-07 19:52:00
2:13 PM,33.8,24.8,70,29.80,10.0,WNW,6.9,-,N/A,,Clear,300,2013-01-07 20:13:00
2:33 PM,33.8,24.8,70,29.80,10.0,West,9.2,16.1,N/A,,Clear,280,2013-01-07 20:33:00
2:52 PM,33.8,24.8,70,29.82,10.0,West,8.1,-,N/A,,Clear,280,2013-01-07 20:52:00
3:13 PM,33.8,24.8,70,29.83,10.0,West,8.1,-,N/A,,Clear,280,2013-01-07 21:13:00
3:33 PM,32.0,24.8,75,29.83,10.0,WSW,10.4,-,N/A,,Clear,250,2013-01-07 21:33:00
3:52 PM,32.0,24.8,75,29.84,10.0,WSW,10.4,-,N/A,,Clear,250,2013-01-07 21:52:00
4:13 PM,32.0,24.8,75,29.84,10.0,WSW,6.9,-,N/A,,Clear,250,2013-01-07 22:13:00
4:33 PM,32.0,23.0,69,29.84,10.0,WSW,6.9,-,N/A,,Clear,240,2013-01-07 22:33:00
5:13 PM,30.2,23.0,75,29.85,10.0,WSW,4.6,-,N/A,,Clear,240,2013-01-07 23:13:00
5:33 PM,28.4,23.0,80,29.85,10.0,WSW,5.8,-,N/A,,Clear,240,2013-01-07 23:33:00
5:52 PM,28.4,23.0,80,29.85,10.0,SW,5.8,-,N/A,,Clear,230,2013-01-07 23:52:00
6:12 PM,28.4,23.0,80,29.85,10.0,SW,5.8,-,N/A,,Clear,230,2013-01-08 00:12:00
6:33 PM,28.4,21.2,74,29.86,10.0,SW,5.8,-,N/A,,Clear,230,2013-01-08 00:33:00
6:52 PM,26.6,21.2,80,29.87,10.0,West,4.6,-,N/A,,Clear,270,2013-01-08 00:52:00
7:12 PM,26.6,23.0,86,29.88,10.0,West,3.5,-,N/A,,Clear,260,2013-01-08 01:12:00
7:33 PM,26.6,23.0,86,29.88,10.0,WSW,4.6,-,N/A,,Clear,250,2013-01-08 01:33:00
7:52 PM,26.6,21.2,80,29.88,10.0,WSW,4.6,-,N/A,,Clear,240,2013-01-08 01:52:00
8:12 PM,26.6,21.2,80,29.88,10.0,West,5.8,-,N/A,,Clear,260,2013-01-08 02:12:00
8:33 PM,26.6,21.2,80,29.88,10.0,West,6.9,-,N/A,,Clear,260,2013-01-08 02:33:00
8:52 PM,26.6,21.2,80,29.88,10.0,West,8.1,-,N/A,,Clear,260,2013-01-08 02:52:00
9:32 PM,26.6,21.2,80,29.89,10.0,West,5.8,-,N/A,,Clear,260,2013-01-08 03:32:00
9:53 PM,24.8,21.2,86,29.89,10.0,WSW,5.8,-,N/A,,Clear,250,2013-01-08 03:53:00
10:13 PM,23.0,21.2,93,29.89,10.0,SW,3.5,-,N/A,,Clear,230,2013-01-08 04:13:00
10:32 PM,21.2,19.4,93,29.89,10.0,SW,4.6,-,N/A,,Clear,230,2013-01-08 04:32:00
10:53 PM,21.2,21.2,100,29.89,10.0,SW,4.6,-,N/A,,Clear,220,2013-01-08 04:53:00
11:13 PM,19.4,17.6,93,29.90,10.0,South,3.5,-,N/A,,Clear,190,2013-01-08 05:13:00
11:32 PM,17.6,17.6,100,29.89,10.0,SW,3.5,-,N/A,,Clear,220,2013-01-08 05:32:00
11:53 PM,19.4,17.6,93,29.89,10.0,SSW,3.5,-,N/A,,Clear,200,2013-01-08 05:53:00